Regional Weather Roundup
Issued by NWS Wakefield, VA

Home | Current Version | Previous Version | Graphics & Text | Print | Product List | Glossary On
Versions: 1 2 3 4 5 6 7 8 9 10 11 12 13 14 15 16 17 18 19 20 21 22 23 24 25 26 27 28 29 30 31 32 33 34 35 36 37 38 39 40 41 42 43 44 45 46 47 48 49 50
000
ASUS41 KAKQ 221914
RWRAKQ

REGIONAL WEATHER ROUNDUP
NATIONAL WEATHER SERVICE WAKEFIELD VA
300 PM EDT TUE MAY 22 2018

Note: "fair" indicates few or no clouds below 12,000 feet with no
significant weather and/or obstructions to visibility. * = Denotes
station may not report precipitation (e.g., rain,snow,etc.),
thunder or fog.

VAZ042-051-052>054-056-222000-
NORTHERN VIRGINIA

CITY           SKY/WX    TMP DP  RH WIND       PRES   REMARKS
WASH NATIONAL  PTSUNNY   77  68  73 S8        30.00F
DULLES         PTSUNNY   78  69  73 S7        29.99F
FORT BELVOIR   FAIR      80  69  68 SE7       30.00F
QUANTICO       PTSUNNY   79  73  82 S8        30.00F
FREDERICKSBRG* FAIR      83  69  62 SW7       29.99F
STAFFORD*      FAIR      82  71  67 SW3       30.04F
WARRENTON      FAIR      84  66  54 SW6       29.99F
CULPEPER*      FAIR      83  68  60 SW5       30.00F
MANASSAS*      FAIR      81  70  69 S5        29.99F
LEESBURG*      FAIR      79  70  73 S5        30.00F
WINCHESTER     FAIR      77  64  65 W9        30.02F
FRONT ROYAL*   FAIR      79  68  69 NW3       29.99F
LURAY*         CLOUDY    72  64  78 SW3       30.00F
$$

VAZ048-049-060>072-079>083-222000-
CENTRAL AND SOUTH CENTRAL VIRGINIA

CITY           SKY/WX    TMP DP  RH WIND       PRES   REMARKS
RICHMOND       PTSUNNY   82  68  62 S7        30.02F
CHESTERFIELD*  MOCLDY    82  71  69 VRB5      30.03F
PETERSBURG*    PTSUNNY   82  68  64 S5        30.04F
HANOVER        FAIR      83  68  60 W7        30.03F
TAPPAHANNOCK*  PTSUNNY   80  71  72 S6        30.02F
QUINTON*       MOCLDY    80  70  73 SE3       30.03F
CHARLOTTSVILLE FAIR      83  69  62 S10       30.00F
GORDONSVILLE*  MOCLDY    83  72  69 SW9       30.00F
ORANGE*        FAIR      81  70  69 SE5       30.00F
LOUISA*        FAIR      82  68  61 SW8       30.06F
BUMPASS*       FAIR      81  69  65 S3        30.02F
FARMVILLE*     FAIR      85  78  79 SW6       30.02F HX  97
CREWE*         MOCLDY    83  69  62 S3        30.03F
FORT PICKETT*  FAIR      84  69  60 SW5       30.04F
CHASE CITY*    FAIR      81  70  68 S7        30.06F
CLARKSVILLE*   MOCLDY    72  68  88 S7        30.06F
SOUTH HILL*    FAIR      82  72  73 SW6       30.11F
LAWRENCEVILLE* FAIR      83  70  63 SW6       30.05F
EMPORIA*       FAIR      82  70  65 S8        30.06F
$$

VAZ088>098-222000-
SOUTHEAST VIRGINIA

CITY           SKY/WX    TMP DP  RH WIND       PRES   REMARKS
NORFOLK        PTSUNNY   80  72  76 NE6       30.04F
VIRGINIA BEACH PTSUNNY   82  70  66 SW8       30.03F
NORFOLK NAVAL  PTSUNNY   82  70  66 S9        30.05F
WEST POINT*    PTSUNNY   80  69  69 S6        30.05F
SALUDA*        MOCLDY    80  72  75 SW8       30.03F
NEWPORT NEWS   FAIR      82  70  66 SW6       30.04F
LANGLEY AFB    NOT AVBL
FORT EUSTIS    FAIR      81  71  71 SW6       30.02F
WILLIAMSBURG*  FAIR      82  68  61 W7        30.05F
HR EXEC AP*    FAIR      81  70  69 W6        30.06F
FRANKLIN*      PTSUNNY   81  69  67 SW5       30.06F
US460-WAKEFLD  PTSUNNY   82  69  64 VRB5      30.04F
$$

VAZ020-022-025-037-045-222000-
WEST CENTRAL AND SOUTHWEST VIRGINIA

CITY           SKY/WX    TMP DP  RH WIND       PRES   REMARKS
STAUNTON*      TSTM      67  62  84 S12G17    30.06R
WAYNESBORO*    CLOUDY    66  63  87 W12G25    30.10R
HOT SPRINGS VA PTSUNNY   65  59  81 W15       30.17F
LYNCHBURG      LGT RAIN  79  68  69 VRB5      30.06F
DANVILLE       FAIR      83  72  69 VRB7      30.05F
SOUTH BOSTON*  FAIR      81  68  65 S8        30.05F
MARTINSVILLE   FAIR      83  67  57 W3        30.08F
ROANOKE        PTSUNNY   81  66  60 SE6       30.07F
BLACKSBURG     PTSUNNY   78  64  61 CALM      30.13F
DUBLIN*        FAIR      82  60  46 S7        30.10F
MARION*        CLOUDY    77  63  61 W10       30.15F
HILLSVILLE*    CLOUDY    74  63  68 S12       30.13F
RICHLANDS*     MOCLDY    72  30  21 W6        30.14F
WISE*          PTSUNNY   72  63  73 SW9       30.16F
ABINGDON*      FAIR      78  64  60 NW6       30.12F
$$

MDZ021>025-VAZ099-100-222000-
SOUTHERN MARYLAND AND THE DELMARVA PENINSULA

CITY           SKY/WX    TMP DP  RH WIND       PRES   REMARKS
PATUXENT RIVER PTSUNNY   81  69  67 S8        30.01F
BAY BRIDGE APT CLOUDY    72  66  83 NW3       30.03F HAZE
LEONARDTOWN    CLOUDY    77  68  73 S5        30.03F
DOVER          PTSUNNY   67  64  91 E6        30.04F
GEORGETOWN     FAIR      78  67  68 SW8       30.02F
EASTON         PTSUNNY   77  68  73 SW7       30.05F
CAMBRIDGE      PTSUNNY   77  68  73 VRB7      30.02F
SALISBURY      FAIR      79  69  71 S9        30.01F
TANGIER        FAIR      75  72  88 S10       30.03F
OCEAN CITY     FAIR      68  64  87 VRB7      30.05F
WALLOPS ISLAND FAIR      75  68  78 S10       30.04F
ACCOMACK*      FAIR      80  69  70 SW8       30.04F
$$

NCZ012>017-030>032-222000-
NORTH CENTRAL AND EASTERN NORTH CAROLINA

CITY           SKY/WX    TMP DP  RH WIND       PRES   REMARKS
ROANOKE RAPIDS MOCLDY    73  70  88 SW12      30.07S
RALEIGH        PTSUNNY   76  70  82 W8        30.08F
ELIZABETH CITY LGT RAIN  74  72  93 SW7       30.06F
AHOSKIE*       FAIR      77  73  87 CALM      30.07S
EDENTON*       FAIR      80  71  73 S6        30.07F
CURRITUCK*     NOT AVBL
KILL DEVIL HLS FAIR      79  69  72 CALM      30.07F
MANTEO         LGT RAIN  74  72  92 SW12      30.09S
CAPE HATTERAS  FAIR      80  72  76 SW13      30.11F
TARBORO*       NOT AVBL
GOLDSBORO      FAIR      86  67  53 S12       30.06F
WASHINGTON     PTSUNNY   86  69  56 W9        30.08S
GREENVILLE     FAIR      77  72  83 W6        30.11F
NEW BERN       FAIR      82  68  62 SW10G16   30.10F
WILMINGTON     FAIR      83  68  60 S13G22    30.11F
$$

VAZ048-222000-
ELSEWHERE

CITY           SKY/WX    TMP DP  RH WIND       PRES   REMARKS
HARRISBURG PA  LGT RAIN  64  62  93 SE8       30.03F
BALTIMORE      CLOUDY    70  66  87 NE5       30.02F
ANNAPOLIS      CLOUDY    74  67  78 SE6       30.02F
ANDREWS AFB    PTSUNNY   77  68  73 CALM      30.01F
PHILADELPHIA   LGT RAIN  62  59  90 CALM      30.07F
HENDERSON NC   RAIN      66  64  91 S3        30.10R
GREENSBORO     PTSUNNY   83  65  54 SW12      30.07F
ROCKY MOUNT    FAIR      78  72  81 S6        30.08F
$$

VAZ100-222000-
MARINE

STATION/POSITION TIME  TEMP    WIND        PRES    WAVE   SWELL
                       AIR SEA DIR/SP/G            HT/PER HT/PER
                 (UTC) (F)     (DEG/KT/KT) (MB)    (FT/S) (FT/S)
BRANDYWINE LGT   1842   63     130/ 13/ 16 1017.6F
CAPE MAY NJ      1848   63 65  130/ 12/ 15 1016.6F
LEWES DE         1842   67 65  150/ 12/ 16 1016.9F
15NM E FENWICK I 1850   60 62  160/  6/  6 1018.2F   2/ 9   2/ 9
OCEAN-CITY-INLET 1842   67 63  190/  6/  9 1018.3F
WACHAPREAGUE VA  1842   73 74  160/  7/  8 1017.3F
THOMAS POINT MD  1900   69 68  170/  6/  6 1017.3F
GOOSES REEF MD   1900   70     160/ 10/ 12 1017.6    1/ 3
COVE POINT MD    1842   69     180/ 13/ 15 1017.4F
SOLOMONS ISLAND  1842   76 70  210/  6/ 12 1016.3F
BISHOPS HEAD MD  1842   73 75  180/ 11/ 13 1017.3F
PINEY POINT MD   1842          210/  6/  7   N/A
POTOMAC MD       1900   72 72  140/ 10/ 12 1015.7    1/ 3
CAMBRIDGE MD     1842   78 71              1017.9F
LEWISETTA VA     1842   78 74  230/  9/ 11 1016.6F
RAPPAHANNOCK LGT 1842          160/  6/  7 1018.1F
STINGRAY PT      1900   72 72  180/  8/ 10 1019.5    1/ 2
YORK RVR RNG VA  1842   79      CALM  /  1 1018.1F
YORKTOWN VA      1842   78 72  230/  8/  9 1016.9F
DOMINION TERM VA 1842   78     200/  8/  9 1017.9F
KIPTOPEKE VA     1842      72  160/  3/  4   N/A
CAPE HENRY VA    1842   72      50/  5/  5   N/A
WILLOUBY STN VA  1842          250/  7/  7   N/A
S CRANEY ISL VA  1842   81     230/  4/ 10 1017.5F
CAPE HENRY BUOY  1830      69                N/A     2/ 8
1ST LANDING BUOY 1900   71 71  110/  6/  8 1017.3    1/ 5
64NM E OF VA BCH 1850   71 69  210/  4/  6 1019.0F   3/ 9   3/ 9
DUCK PIER NC     1842   79 67  230/  9/ 11 1018.2F
44100 DUCK FRF   1845      69                N/A     2/ 8
44056 DUCK FRF   1830      71                N/A     2/ 8
OREGON INLET NC  1842   77 77  200/ 14/ 18 1018.7F
HATTERAS NC      1842   77 75  210/ 11/ 16 1019.3F
DIAMOND SHLS NC  1900   75 74  220/ 14/ 17 1020.1
CAPE LOOKOUT NC  1900          210/ 12/ 14 1020.2F
$$



USA.gov is the U.S. government's official web portal to all federal, state and local government web resources and services.